Theta_e
343 342 342 341 340 336 336 335 335 334 332 330 326 324 321 319 320 320 318 316 313 315 314 312 311 313 314 309 311 313 314 314 314 313 311 312 310 310 308 308 313 311 308
343 342 341 340 339 337 336 334 332 332 332 331 328 325 323 320 321 320 319 317 315 315 314 312 312 314 315 314 312 313 313 314 313 311 312 311 307 307 306 307 307 306 307
342 340 339 338 337 335 333 332 332 331 330 330 328 324 323 321 321 321 321 319 319 316 315 314 314 313 314 314 313 312 313 313 312 311 311 307 306 306 305 304 304 302 303
340 340 337 338 336 334 331 331 331 330 329 328 326 324 322 322 321 321 322 320 321 319 318 317 316 314 313 314 312 312 312 311 312 310 309 306 307 306 305 304 302 302 303
341 339 338 336 335 334 333 332 332 331 330 329 327 325 322 321 321 321 321 321 321 320 319 318 317 315 313 313 312 312 312 311 310 310 308 305 305 306 305 304 303 302 302
335 339 338 338 337 335 334 335 334 333 331 330 329 327 326 324 323 321 322 321 321 320 320 319 317 314 313 314 312 310 310 312 310 310 309 306 305 305 306 305 303 303 301
332 335 333 331 330 331 333 334 334 331 329 329 329 328 327 326 325 325 324 323 322 321 320 317 317 312 313 313 310 310 311 311 311 311 311 309 305 306 306 306 303 302 302
330 332 331 330 329 329 328 328 329 329 328 328 328 328 327 326 324 324 324 323 322 321 320 317 316 312 311 311 309 310 310 310 310 311 312 312 309 307 306 306 303 303 302
321 322 323 322 322 322 326 329 329 327 327 328 328 328 327 323 322 321 322 322 321 320 318 316 315 310 312 310 309 310 310 310 311 311 312 311 310 310 305 306 303 302 302
319 321 321 322 322 321 321 322 323 323 323 325 324 325 326 325 323 322 321 320 319 318 314 313 312 312 310 309 310 310 310 312 311 311 308 307 307 307 306 307 305 303 303
317 318 317 317 316 316 319 321 321 321 321 322 322 321 320 324 323 321 319 319 317 314 312 311 311 311 310 309 310 311 312 312 311 308 307 305 304 305 305 305 305 304 304
318 317 316 316 315 315 315 315 316 317 318 321 320 321 320 321 321 320 319 317 316 313 312 311 312 310 312 312 311 311 311 311 311 310 308 303 301 302 303 305 305 304 304
320 319 316 316 315 312 313 315 315 315 315 318 319 320 320 318 319 317 317 315 313 312 311 312 310 311 312 311 310 309 309 311 310 307 304 301 301 303 305 305 305 304 304
315 314 315 316 313 312 315 316 316 315 314 314 316 318 318 318 316 317 316 313 311 311 311 311 312 312 310 309 308 310 308 306 306 303 301 301 301 304 305 305 305 304 303
316 316 313 311 310 312 313 313 310 310 311 313 315 316 315 317 315 316 316 313 311 311 312 311 311 311 310 308 308 310 310 308 304 302 302 302 302 303 304 304 303 302 301
310 309 309 309 309 309 309 309 310 310 310 310 312 313 314 316 315 316 315 313 312 312 311 311 310 310 308 309 309 305 305 307 306 304 303 303 304 305 303 302 301 299 298
310 310 309 308 309 309 308 308 309 310 309 310 310 312 313 313 315 314 314 312 311 311 311 311 310 309 308 306 304 305 305 303 304 306 305 304 302 301 300 299 298 298 298
311 311 310 310 310 310 308 308 309 310 310 311 310 312 313 313 313 313 312 311 310 310 310 309 308 308 304 303 302 302 303 304 303 302 302 301 300 299 299 298 298 298 298
310 312 311 311 308 310 310 311 310 309 309 310 310 310 311 313 313 312 311 310 309 309 309 308 306 303 301 301 302 302 302 302 301 300 298 298 298 298 297 297 297 297 296
309 310 311 310 310 308 309 310 309 309 309 308 307 308 308 310 310 311 310 311 310 308 303 302 303 302 301 301 301 300 300 299 298 298 297 297 296 295 294 293 294 295 296
310 310 310 311 311 309 310 309 310 310 310 308 309 310 309 310 310 310 310 309 310 306 301 301 301 301 300 300 299 298 298 297 297 297 296 295 294 293 293 294 295 295 296
310 310 310 311 310 310 310 310 310 310 310 310 309 310 308 307 309 308 307 306 302 301 301 301 301 300 300 299 298 297 296 295 296 295 295 293 293 293 293 294 294 295 296
307 309 310 310 310 309 309 307 306 305 305 306 306 306 306 306 306 305 303 302 301 301 301 301 301 300 299 298 297 296 294 294 295 295 294 293 294 293 294 295 296 296 297
307 308 310 311 311 311 308 305 304 304 304 303 303 305 306 306 306 304 302 300 301 301 301 301 300 300 299 298 296 292 292 294 294 293 293 294 294 295 295 295 296 297 297
307 309 311 311 310 307 306 305 306 306 306 306 306 306 306 305 305 305 301 301 301 301 301 300 300 299 298 296 294 291 294 293 293 294 294 295 296 296 297 297 297 298 299
309 311 310 311 309 307 306 306 305 305 305 305 305 305 306 306 305 301 301 301 301 301 300 300 299 298 297 295 291 293 293 293 293 294 295 296 297 297 298 298 299 299 299
Wind_Speed
21 18 18 16 15 12 13 12 12 13 15 18 17 17 20 19 18 18 15 14 15 16 15 15 13 10 9 8 5 5 4 3 3 5 9 8 6 10 16 12 6 8 7
18 17 16 13 12 12 11 11 14 15 15 17 19 19 19 21 20 20 18 19 18 20 19 17 16 13 12 10 6 6 7 4 6 4 3 3 4 6 7 5 3 4 7
17 13 11 11 11 10 12 13 12 11 15 19 21 19 21 23 22 24 22 24 22 23 22 23 20 17 13 11 11 8 6 4 2 4 6 3 2 3 0 2 5 9 11
16 13 13 12 12 12 11 13 10 12 11 12 15 18 20 24 23 24 25 29 25 26 25 25 23 21 19 14 13 10 8 10 9 10 10 11 7 4 3 5 8 11 13
14 15 13 10 10 12 13 13 11 12 12 12 11 17 21 24 26 25 27 29 29 29 28 29 23 21 19 15 14 10 10 11 12 11 12 8 7 6 6 5 10 12 14
10 15 10 8 9 11 12 11 11 11 13 14 15 15 17 21 25 26 27 30 31 30 29 30 23 22 22 17 16 15 14 14 15 12 12 12 12 9 7 7 8 9 4
8 9 6 4 3 4 3 7 10 9 10 14 17 18 18 18 19 21 24 28 31 32 30 29 26 24 21 14 12 12 14 12 16 16 18 18 18 15 10 10 8 9 9
7 5 5 3 1 3 5 6 8 11 13 15 16 16 17 16 16 18 19 23 28 30 28 29 27 28 20 14 13 14 16 15 15 22 21 20 20 17 14 11 10 11 13
5 4 4 1 2 5 6 9 8 10 13 14 16 16 17 15 15 16 17 18 22 26 26 26 27 26 18 15 15 16 17 18 16 17 18 16 20 15 15 13 13 10 7
3 2 1 4 7 9 10 13 12 11 13 13 16 15 17 18 17 16 15 16 19 23 23 23 23 19 16 15 16 16 19 19 14 13 10 8 6 10 15 18 18 17 9
15 13 9 11 16 19 17 16 16 18 17 16 15 15 17 18 17 16 13 13 17 20 21 21 19 16 14 15 16 19 19 18 13 12 11 10 11 13 17 21 22 19 15
7 12 24 24 16 24 28 22 18 18 21 23 20 18 17 17 18 16 15 13 14 19 19 19 16 13 11 11 13 16 16 14 14 15 15 15 11 11 12 13 16 17 16
17 21 18 17 19 16 24 26 26 26 29 25 23 21 24 20 16 15 13 12 14 16 16 13 13 14 14 14 14 13 14 14 15 16 17 17 15 13 13 15 17 16 17
11 13 16 19 22 30 28 23 25 22 22 21 22 22 26 19 15 13 15 14 19 15 15 12 10 11 12 15 15 14 15 16 17 18 18 18 14 14 11 11 14 12 13
16 17 12 8 12 16 20 22 25 30 23 21 23 24 22 18 18 15 16 16 22 20 14 14 14 15 16 15 17 17 17 19 20 22 21 21 17 17 18 13 11 6 6
3 10 16 21 23 19 21 22 26 26 25 13 16 17 16 13 12 11 12 13 15 17 16 13 13 13 15 17 16 20 17 13 15 18 19 20 14 10 9 8 9 7 10
11 14 17 19 22 26 27 22 16 28 26 21 21 15 13 11 9 10 11 11 12 14 12 10 11 11 12 13 16 5 5 5 9 10 11 10 9 6 8 7 9 9 7
15 19 19 16 18 21 27 24 25 23 18 16 15 9 13 11 7 8 12 13 9 10 10 10 11 9 10 10 7 8 9 9 9 9 9 8 11 14 11 7 5 4 4
17 17 19 21 18 19 22 24 12 9 8 5 4 7 8 12 16 15 14 11 11 6 7 12 10 10 8 3 8 12 12 10 9 11 13 11 10 8 6 4 5 6 6
19 18 17 18 23 26 21 14 14 11 14 18 17 11 5 12 14 17 15 10 7 4 6 6 2 6 14 17 14 12 14 13 12 10 9 7 4 1 3 4 2 1 2
20 13 19 21 19 21 20 9 8 21 23 16 13 9 7 15 15 12 10 9 7 3 3 20 21 19 16 13 14 14 11 9 7 7 6 4 3 7 7 6 4 2 3
13 16 19 18 17 10 3 11 17 10 11 7 5 3 8 15 15 16 9 4 3 3 20 19 18 15 12 11 11 10 7 5 8 7 6 7 10 8 7 6 5 5 3
17 19 17 8 5 6 15 9 8 9 9 6 5 11 15 22 19 14 15 9 16 22 18 13 13 12 11 10 8 6 5 5 6 4 6 12 11 10 7 6 6 6 6
13 17 7 3 3 12 11 9 8 7 6 1 10 16 17 23 22 20 7 18 21 19 14 11 10 9 8 7 7 7 5 4 5 10 16 15 10 6 3 3 4 5 5
12 8 4 3 5 11 5 5 8 13 19 23 25 26 25 25 15 3 13 20 20 16 13 10 9 7 6 7 8 6 5 6 12 16 14 9 5 5 6 6 6 6 4
6 6 5 6 11 13 13 9 8 8 13 16 18 17 15 6 9 12 19 17 18 15 13 12 9 7 6 7 7 6 7 10 13 16 11 6 3 4 3 3 4 4 4
Wind_Direction
206 209 219 233 238 252 253 264 259 257 247 239 240 228 224 222 221 221 232 234 233 229 237 244 246 258 242 237 264 329 320 292 225 293 341 301 350 332 308 288 251 251 263
207 205 213 220 224 242 248 274 279 271 259 246 244 241 233 225 225 226 233 233 238 234 243 242 245 247 247 248 270 297 313 251 227 262 296 325 95 77 64 84 66 322 293
194 196 208 215 206 230 246 259 261 280 258 247 247 246 238 227 229 231 240 233 247 244 245 243 244 240 233 240 250 275 293 242 237 267 335 338 184 173 201 334 336 317 298
192 196 201 209 225 228 241 259 272 261 263 262 247 239 240 233 238 242 245 240 248 252 251 246 247 242 236 232 241 255 280 274 281 297 295 255 222 207 271 322 338 334 327
212 206 203 210 234 235 246 249 260 267 272 268 265 249 243 242 247 251 251 247 250 248 257 250 241 240 224 227 236 264 266 268 268 260 244 250 236 239 270 308 324 327 329
202 207 214 225 247 256 254 253 261 261 269 268 267 266 262 256 258 257 259 260 258 260 255 246 231 227 223 233 255 264 261 266 244 258 258 251 256 244 255 289 309 316 320
187 164 173 204 250 301 272 259 260 266 288 277 273 269 269 273 277 275 268 263 260 259 253 239 226 216 224 242 250 251 238 244 255 272 269 265 255 252 246 269 279 285 276
128 159 192 185 236 300 295 284 278 274 273 272 277 274 273 279 283 284 282 270 258 255 253 242 230 217 226 232 236 243 255 262 266 284 275 268 269 263 251 269 272 279 283
112 126 151 163 351 315 269 263 268 278 277 277 275 270 263 273 277 289 276 267 258 255 255 245 231 218 230 231 233 246 260 269 274 273 270 274 277 265 243 258 257 261 281
335 287 359 298 306 303 298 293 282 274 282 283 281 276 263 270 269 278 276 265 257 249 242 234 221 228 221 216 230 248 266 276 285 276 253 257 249 238 242 251 263 250 255
8 354 10 9 352 337 320 309 297 299 297 294 291 283 281 272 272 278 269 267 259 235 216 213 218 221 224 219 241 260 267 280 279 249 259 266 264 257 265 260 259 253 257
256 325 335 341 345 334 316 308 305 296 296 289 288 290 281 281 275 269 267 265 255 228 213 212 215 209 218 232 257 268 273 256 254 251 266 275 273 269 277 252 238 249 265
273 279 262 274 281 292 292 297 305 306 307 300 282 278 277 283 275 269 262 252 225 223 222 214 211 215 224 249 268 277 270 253 248 243 252 259 265 280 284 246 243 249 259
259 261 273 268 272 292 287 285 297 301 306 297 287 265 269 272 273 266 254 230 208 214 213 197 203 216 245 262 274 273 263 257 252 255 260 268 268 265 245 268 244 249 261
280 288 307 339 340 326 318 315 319 319 309 297 291 290 292 276 283 272 249 227 213 206 209 220 240 250 270 271 277 278 274 266 258 252 251 260 267 264 258 248 235 250 276
233 299 320 318 308 306 307 306 303 303 308 311 303 296 287 279 282 272 246 232 218 205 213 227 248 259 268 278 285 291 285 273 258 256 250 249 257 251 227 207 225 161 103
310 316 323 314 311 310 306 289 309 313 303 307 297 283 277 273 253 236 221 209 197 186 209 233 254 267 275 287 294 267 240 225 245 239 243 218 209 222 181 149 130 118 84
312 311 309 319 321 319 310 311 309 294 286 298 281 263 263 225 210 209 180 173 178 203 215 248 276 278 283 293 199 194 197 166 155 161 175 186 164 154 158 172 238 229 218
318 312 307 301 317 314 318 310 274 286 285 274 260 253 254 219 179 174 188 184 210 208 259 270 271 274 289 226 152 153 160 165 167 156 144 143 144 148 151 173 254 235 231
305 314 314 302 311 306 315 273 256 287 302 286 271 268 240 199 174 173 183 202 223 249 303 315 242 135 134 132 131 137 134 136 141 140 132 127 122 60 103 92 77 105 183
299 298 306 299 311 309 311 267 307 324 305 285 288 254 215 189 178 172 154 196 250 289 86 116 118 123 124 124 125 127 127 134 143 145 136 114 99 115 111 103 77 70 105
313 303 304 307 322 312 308 326 321 308 299 279 258 247 206 179 146 144 178 223 234 160 134 124 116 110 106 107 114 116 115 136 163 149 122 113 119 115 109 97 79 63 65
306 311 319 354 83 16 343 337 334 330 302 273 208 166 162 139 125 115 104 103 138 141 132 119 113 108 107 101 86 55 32 114 134 125 125 124 123 119 95 74 59 63 59
295 302 339 95 9 360 347 6 17 359 352 53 146 132 126 124 124 135 161 150 138 138 132 116 104 101 98 77 50 39 45 105 113 119 125 125 117 104 60 353 331 317 304
281 301 91 83 46 82 73 76 56 66 80 89 98 109 116 129 150 325 163 148 143 140 133 124 122 115 95 61 29 38 93 129 130 132 130 129 96 32 9 356 348 8 20
295 184 124 130 126 125 119 119 111 100 106 118 128 145 159 157 349 146 149 143 147 145 143 137 126 109 73 34 41 88 125 134 138 136 134 143 102 27 358 2 11 15 42